{"data":{"norad_id":58686,"intl_designator":"2023-211V","name":"STARLINK-31137","alt_names":[],"object_type":"PAYLOAD","status":"ACTIVE","operator":null,"country":"US","launch_date":"2023-12-29","launch_site_code":"AFETR","launch_vehicle":null,"mission":null,"orbit_class":"UNKNOWN","rcs_meters":null,"size_class":null,"mass_kg":null,"dimensions":null,"purposes":["comms"],"wikipedia_slug":null,"has_3d_model":false,"image_url":null,"decayed_at":null,"tle_current":{"epoch":"2026-09-20T14:35:55.221792Z","epoch_age_seconds":140367,"freshness":"FRESH","line1":"1 58686U 23211V   26263.60827803  .00014390  00000+0  53128-3 0  9993","line2":"2 58686  43.0004  64.5843 0000347  38.3588 321.7289 15.27589048152273","mean_motion":15.27589048,"eccentricity":3.47e-5,"inclination_deg":43.0004,"raan_deg":64.5843,"arg_perigee_deg":38.3588,"mean_anomaly_deg":321.7289,"bstar":0.00053128,"rev_number":15227,"period_min":94.266190366141,"perigee_km":482.78392098897,"apogee_km":483.26008542379,"semimajor_km":6861.1590032064,"source":"CELESTRAK","updated_at":"2026-09-21T09:00:33.946111Z"}}}